Weather History for Wright-Patt AFB, OH

Change the Weather History Date:

Wednesday, August 7, 2013

  Actual Average Record
Temperature  
Mean Temperature 76 °F -  
Max Temperature 84 °F 81 °F 98 °F (2007)
Min Temperature 69 °F 61 °F 51 °F (2004)
Cooling Degree Days 12    
Growing Degree Days 26 (Base 50)    
Moisture  
Dew Point 70 °F    
Average Humidity 84    
Maximum Humidity 94    
Minimum Humidity 65    
Precipitation  
Precipitation 0.00 in - - ()
Sea Level Pressure  
Sea Level Pressure 29.93 in    
Wind  
Wind Speed 5 mph (South)    
Max Wind Speed 13 mph    
Max Gust Speed -    
Visibility 10 miles    
Events      
Averages and records for this station are not official NWS values.
T = Trace of Precipitation, MM = Missing Value Source: NWS Daily Summary

Daily Weather History Graph

Daily Weather History Graph

Search for Another Location

Airport:

Trip Planner

Search our weather history database for the weather conditions in past years. The results will help you decide how hot, cold, wet, or windy it might be!

Date:

Astronomy

Aug. 07, 2013 Rise Set
Actual Time 6:40 AM EDT 8:42 PM EDT
Civil Twilight 6:11 AM EDT 9:11 PM EDT
Nautical Twilight 5:34 AM EDT 9:47 PM EDT
Astronomical Twilight 4:55 AM EDT 10:27 PM EDT
Moon 7:28 AM EDT (8/7) 8:49 PM EDT (8/7)
Length of Visible Light 15h 00m
Length of Day
14h 01m
New Moon, 1% of the Moon is Illuminated
Aug 7
New Moon
Aug 14
First Quarter
Aug 20
Full
Aug 28
Last Quarter
Sep 5
New

Hourly Weather History & Observations

Time (EDT) Temp. Heat Index Dew Point Humidity Pressure Visibility Wind Dir Wind Speed Gust Speed Precip Events Conditions
12:58 AM 70.3 °F - 66.6 °F 88% 29.94 in 10.0 mi Variable 1.2 mph - N/A   Clear
1:58 AM 70.7 °F - 67.1 °F 88% 29.95 in 10.0 mi South 2.3 mph - N/A   Scattered Clouds
2:48 AM 69.8 °F - 68.0 °F 94% 29.96 in 10.0 mi ESE 3.5 mph - N/A   Mostly Cloudy
2:58 AM 70.3 °F - 67.1 °F 89% 29.94 in 10.0 mi ESE 3.5 mph - N/A   Mostly Cloudy
3:28 AM 71.6 °F - 68.0 °F 88% 29.95 in 10.0 mi SSE 4.6 mph - N/A   Scattered Clouds
3:58 AM 70.5 °F - 67.1 °F 89% 29.94 in 10.0 mi SE 4.6 mph - N/A   Partly Cloudy
4:58 AM 70.7 °F - 67.6 °F 90% 29.92 in 10.0 mi SSE 5.8 mph - N/A   Overcast
5:58 AM 70.5 °F - 67.8 °F 91% 29.91 in 10.0 mi SSE 6.9 mph - N/A   Scattered Clouds
6:08 AM 71.6 °F - 68.0 °F 88% 29.93 in 10.0 mi SSE 5.8 mph - N/A   Mostly Cloudy
6:18 AM 69.8 °F - 68.0 °F 94% 29.93 in 10.0 mi South 4.6 mph - N/A   Mostly Cloudy
6:28 AM 69.8 °F - 68.0 °F 94% 29.94 in 10.0 mi South 3.5 mph - N/A   Mostly Cloudy
6:38 AM 69.8 °F - 68.0 °F 94% 29.94 in 10.0 mi South 4.6 mph - N/A   Mostly Cloudy
6:58 AM 70.3 °F - 68.2 °F 93% 29.92 in 7.0 mi SSE 6.9 mph - N/A   Mostly Cloudy
7:18 AM 69.8 °F - 68.0 °F 94% 29.92 in 7.0 mi SSE 5.8 mph - N/A   Mostly Cloudy
7:38 AM 71.6 °F - 68.0 °F 88% 29.94 in 10.0 mi South 4.6 mph - N/A   Overcast
7:48 AM 71.6 °F - 69.8 °F 94% 29.94 in 10.0 mi SSE 5.8 mph - N/A   Overcast
7:58 AM 71.4 °F - 68.9 °F 92% 29.94 in 10.0 mi SSE 4.6 mph - N/A   Overcast
8:21 AM 71.6 °F - 69.8 °F 94% 29.94 in 10.0 mi South 5.8 mph - N/A   Overcast
8:38 AM 73.4 °F - 69.8 °F 88% 29.94 in 4.0 mi South 4.6 mph - N/A   Overcast
8:58 AM 73.4 °F - 70.9 °F 92% 29.94 in 4.0 mi SSW 6.9 mph - N/A   Overcast
9:58 AM 76.8 °F - 72.3 °F 86% 29.96 in 10.0 mi SSW 6.9 mph - N/A   Mostly Cloudy
10:18 AM 77.0 °F - 71.6 °F 83% 29.96 in 10.0 mi SW 10.4 mph - N/A   Mostly Cloudy
10:28 AM 77.0 °F - 71.6 °F 83% 29.96 in 10.0 mi SW 8.1 mph - N/A   Mostly Cloudy
10:58 AM 77.5 °F - 72.5 °F 84% 29.94 in 10.0 mi WSW 9.2 mph - N/A   Mostly Cloudy
11:58 AM 79.3 °F - 72.1 °F 79% 29.96 in 10.0 mi SSW 10.4 mph - N/A   Mostly Cloudy
12:58 PM 79.9 °F - 71.4 °F 75% 29.94 in 10.0 mi WSW 5.8 mph - N/A   Overcast
1:58 PM 80.6 °F 84.4 °F 71.1 °F 73% 29.93 in 10.0 mi SSW 8.1 mph - N/A   Overcast
2:58 PM 81.7 °F 85.8 °F 71.2 °F 70% 29.92 in 10.0 mi SW 3.5 mph - N/A   Partly Cloudy
3:58 PM 83.3 °F 88.4 °F 71.6 °F 68% 29.90 in 10.0 mi SSW 12.7 mph - N/A   Partly Cloudy
4:58 PM 84.4 °F 89.7 °F 71.2 °F 65% 29.89 in 10.0 mi SW 9.2 mph - N/A   Partly Cloudy
5:58 PM 83.5 °F 88.5 °F 71.6 °F 67% 29.89 in 10.0 mi SW 8.1 mph - N/A   Partly Cloudy
6:58 PM 82.0 °F 86.5 °F 71.2 °F 70% 29.89 in 10.0 mi SSW 9.2 mph - N/A   Clear
7:58 PM 80.8 °F 84.4 °F 70.5 °F 71% 29.90 in 10.0 mi WSW 5.8 mph - N/A   Partly Cloudy
8:48 PM 78.8 °F - 69.8 °F 74% 29.91 in 10.0 mi SSW 2.3 mph - N/A   Partly Cloudy
8:58 PM 78.4 °F - 70.3 °F 76% 29.89 in 10.0 mi SE 3.5 mph - N/A   Scattered Clouds
9:58 PM 77.2 °F - 71.6 °F 83% 29.91 in 10.0 mi ENE 1.2 mph - 0.00 in   Clear
10:58 PM 76.5 °F - 72.3 °F 87% 29.93 in 10.0 mi South 4.6 mph - N/A   Clear
11:58 PM 75.7 °F - 72.1 °F 89% 29.93 in 10.0 mi SE 2.3 mph - N/A   Clear